Wind_Speed
48 47 45 45 43 42 41 41 40 40 39 38 37 36 35 35 34 33 33 31 31 31 31 31 30 31 31 30 31 32 32 32 32 32 33 33 33 33
51 50 47 47 45 44 43 43 43 41 40 39 39 38 37 37 36 36 35 35 34 34 34 33 33 33 33 33 33 33 34 34 34 35 35 35 35 35
52 52 50 49 48 47 45 44 44 43 42 40 40 39 38 38 38 37 37 37 36 36 36 35 35 35 35 35 35 35 36 36 37 37 37 37 37 37
54 53 53 51 50 49 48 47 46 45 44 42 41 41 40 40 40 39 39 39 39 38 38 38 38 38 38 37 37 38 38 39 39 38 39 39 39 39
53 53 54 53 51 50 49 49 49 48 46 45 43 42 42 41 41 41 41 41 40 40 40 41 41 41 40 40 40 40 40 40 41 41 41 40 40 41
55 54 54 54 53 51 51 50 49 49 48 47 45 44 43 43 42 42 42 42 42 42 42 43 43 42 42 42 42 42 42 43 43 43 42 42 43 44
56 56 55 55 53 52 52 51 50 50 50 49 48 45 45 44 44 44 43 43 43 43 43 43 43 43 43 43 43 43 44 44 44 44 44 45 45 46
57 56 56 56 55 54 53 53 53 52 51 51 50 47 46 46 45 44 44 44 44 43 43 43 43 43 43 43 44 44 45 45 45 45 46 46 47 47
57 57 56 56 56 56 55 54 54 53 52 52 52 49 47 47 47 46 46 46 45 45 45 44 45 45 45 45 45 45 45 46 47 47 47 48 49 49
55 55 55 55 57 56 55 54 53 53 53 52 52 51 49 48 49 48 47 48 48 47 47 47 47 47 47 47 47 47 47 48 48 49 49 50 50 51
54 54 55 55 55 55 54 54 54 54 54 53 52 51 51 50 50 50 50 49 50 50 49 49 49 49 49 50 50 49 50 50 50 51 51 52 52 52
56 56 55 55 54 53 53 54 54 54 55 54 54 54 53 52 52 52 52 52 52 51 51 51 51 51 51 51 51 51 51 52 52 52 52 53 53 53
58 58 57 56 54 53 53 53 54 54 54 55 56 56 55 54 55 54 54 54 54 54 53 53 53 53 53 52 52 53 53 53 53 53 53 53 53 54
58 58 57 56 55 55 55 54 54 54 55 55 55 55 54 54 55 55 55 55 55 55 55 55 54 54 54 53 53 53 54 54 54 53 54 54 54 55
58 58 57 56 56 56 55 55 55 55 55 55 55 56 56 55 55 55 55 56 56 56 56 55 55 55 55 54 53 53 53 53 53 54 55 56 56 56
59 58 57 57 56 56 55 55 56 56 55 54 55 55 55 55 55 55 56 56 56 55 55 55 55 55 54 54 53 53 53 53 54 55 56 56 56 57
57 57 57 57 56 55 55 55 55 55 56 56 56 56 56 56 56 56 56 56 55 55 55 55 55 55 54 53 53 53 53 53 54 55 55 55 55 56
57 57 57 57 56 56 55 53 53 53 54 55 55 55 56 56 56 56 55 55 55 55 55 55 54 54 54 53 53 53 52 53 53 54 54 54 55 55
55 56 56 56 56 56 55 54 53 53 52 52 53 54 54 55 55 55 55 55 55 54 53 53 53 53 53 53 53 54 54 53 54 54 55 55 55 55
52 52 53 54 54 55 54 54 54 54 53 53 53 53 54 54 54 54 54 54 53 53 52 52 52 52 52 53 54 54 55 55 55 55 55 55 55 55
49 49 50 52 52 53 53 53 53 53 53 53 53 53 53 53 53 53 53 52 52 52 52 52 52 53 53 54 54 54 54 55 55 55 55 55 55 55
46 47 47 49 50 50 51 51 51 51 51 51 51 50 50 50 50 51 51 51 51 51 51 52 52 53 54 54 54 54 54 54 54 54 55 55 55 54
45 45 46 47 48 48 48 49 49 49 48 48 48 48 48 48 49 49 49 49 49 50 50 51 51 52 52 52 52 52 52 52 53 53 53 53 53 53
Wind_Direction
236 236 237 238 239 242 243 244 245 247 249 252 253 254 256 259 261 263 263 265 269 271 272 273 275 277 279 280 281 282 283 284 285 286 288 289 291 292
236 236 237 238 239 241 243 245 245 246 249 251 252 253 255 258 261 263 263 265 267 269 271 273 274 276 278 279 280 281 282 284 284 285 287 288 289 290
237 237 238 239 240 242 243 244 245 246 249 251 253 254 256 258 259 261 263 265 266 269 271 272 273 275 277 279 279 281 283 283 284 285 286 287 288 289
237 237 237 239 241 242 243 244 246 247 249 250 253 254 256 258 260 261 262 264 267 269 269 271 273 274 276 277 278 280 281 282 283 284 285 285 286 287
237 238 238 239 241 242 243 245 246 248 249 250 252 255 256 258 261 263 264 265 266 268 269 270 272 273 275 277 278 279 279 281 282 283 284 285 286 287
238 238 239 240 241 242 243 245 246 248 250 251 253 255 256 258 261 263 265 265 266 268 270 270 272 273 275 276 277 278 278 279 281 282 284 285 286 287
239 238 239 240 241 242 244 245 247 248 249 250 252 255 256 258 261 263 264 266 267 269 270 271 272 274 275 276 276 277 278 279 280 282 283 285 286 286
240 240 240 240 242 243 245 246 247 248 249 250 251 253 256 258 260 262 264 265 267 268 270 272 273 274 274 276 277 278 279 279 281 282 283 284 285 286
239 240 242 243 243 245 246 247 248 249 250 251 251 253 256 257 259 261 263 265 267 269 270 271 272 274 275 276 277 279 280 281 282 283 283 284 285 286
240 241 242 244 244 246 246 247 248 249 250 251 253 254 256 258 259 261 263 265 267 268 269 271 272 273 274 275 277 278 279 280 281 282 283 284 285 286
239 240 242 243 244 246 246 248 250 250 251 253 253 255 257 258 260 262 263 265 266 268 269 270 271 272 273 275 276 277 279 280 281 282 283 284 285 285
240 241 242 243 244 245 246 248 250 251 252 253 254 255 257 258 260 262 264 266 267 268 269 270 271 272 273 274 275 276 278 280 281 282 283 284 285 285
241 242 243 244 245 245 247 249 251 252 253 254 255 256 257 258 261 263 264 266 267 268 268 269 271 273 274 275 276 277 278 279 280 282 283 284 284 285
241 242 243 244 245 247 248 249 251 252 253 254 255 256 257 259 261 263 265 265 266 267 267 269 270 272 273 275 276 277 278 279 279 281 282 283 284 285
241 241 242 243 245 246 248 250 251 252 252 254 255 256 258 259 261 262 264 265 265 266 267 268 270 271 272 274 276 277 278 278 280 281 282 282 283 284
241 241 241 243 244 245 247 248 249 251 252 254 255 256 257 259 260 261 263 264 265 266 267 269 270 271 273 274 276 276 277 279 281 282 283 282 283 284
241 242 243 244 244 245 246 248 250 252 253 253 255 256 257 258 259 261 263 265 265 267 268 270 271 272 272 274 275 276 277 279 281 282 282 282 283 284
241 242 243 244 245 246 247 248 250 251 253 254 255 256 257 258 259 261 263 265 267 268 270 270 272 272 273 274 275 277 278 279 280 281 281 282 284 285
241 242 243 243 244 245 247 248 249 251 251 252 254 255 256 258 259 262 264 265 267 268 269 270 271 272 272 274 276 277 278 279 280 281 282 283 284 285
242 242 242 243 244 245 246 248 249 251 252 252 254 256 257 259 261 263 264 265 266 268 269 269 270 271 273 274 276 277 278 279 281 281 282 282 284 285
243 242 242 243 244 245 247 248 249 251 253 253 255 256 259 260 261 263 264 265 265 266 267 268 269 271 273 275 276 277 278 279 280 281 281 282 283 285
243 242 242 243 243 245 247 248 250 252 254 255 256 257 259 260 261 262 263 264 265 266 268 269 270 271 273 274 276 277 278 279 280 281 281 282 284 285
243 242 242 243 243 245 246 247 249 251 252 254 256 256 258 259 261 262 263 264 265 266 268 269 270 271 272 274 276 277 278 279 280 281 282 283 285 285
Height
5736 5741 5746 5750 5754 5758 5761 5765 5768 5771 5774 5776 5779 5781 5782 5783 5785 5785 5786 5787 5787 5787 5787 5787 5786 5785 5784 5783 5782 5781 5780 5778 5777 5775 5773 5771 5769 5767
5725 5730 5735 5740 5744 5748 5752 5755 5758 5762 5765 5767 5770 5771 5773 5775 5776 5777 5778 5778 5779 5779 5779 5779 5778 5778 5777 5776 5774 5773 5772 5770 5768 5767 5765 5763 5761 5759
5714 5719 5724 5729 5733 5738 5742 5745 5748 5752 5755 5758 5760 5762 5764 5766 5767 5768 5768 5769 5770 5770 5770 5770 5769 5769 5768 5767 5766 5764 5763 5761 5760 5758 5756 5754 5752 5750
5702 5708 5713 5717 5722 5727 5731 5734 5738 5741 5745 5748 5751 5752 5754 5756 5757 5758 5759 5760 5760 5761 5761 5760 5760 5759 5759 5758 5757 5755 5754 5752 5751 5749 5747 5745 5743 5740
5690 5696 5701 5706 5711 5715 5720 5724 5727 5731 5734 5737 5740 5742 5744 5746 5747 5748 5749 5750 5750 5751 5750 5750 5750 5749 5749 5748 5747 5746 5744 5743 5741 5739 5737 5734 5732 5730
5678 5684 5689 5694 5699 5704 5708 5712 5716 5719 5723 5726 5729 5732 5734 5735 5737 5738 5739 5739 5740 5740 5740 5740 5739 5739 5738 5738 5737 5735 5734 5732 5730 5728 5726 5724 5721 5719
5666 5672 5677 5682 5687 5691 5696 5700 5704 5708 5711 5714 5718 5720 5722 5724 5726 5727 5728 5728 5729 5729 5729 5729 5729 5728 5727 5726 5725 5724 5723 5721 5719 5717 5715 5713 5710 5707
5654 5659 5664 5669 5674 5679 5684 5688 5692 5695 5699 5702 5706 5708 5711 5713 5715 5716 5716 5717 5718 5719 5718 5718 5717 5717 5716 5715 5714 5712 5711 5709 5708 5705 5703 5701 5698 5695
5641 5646 5652 5657 5662 5666 5671 5675 5679 5682 5687 5690 5693 5696 5699 5701 5703 5704 5705 5705 5706 5707 5706 5706 5706 5705 5704 5703 5702 5701 5699 5697 5696 5693 5691 5689 5686 5683
5628 5634 5639 5644 5649 5653 5658 5662 5666 5670 5674 5677 5682 5684 5686 5688 5690 5691 5692 5693 5694 5694 5694 5694 5694 5693 5692 5691 5690 5689 5687 5685 5683 5681 5678 5676 5673 5670
5615 5621 5626 5631 5636 5640 5645 5649 5654 5657 5659 5663 5667 5670 5672 5675 5677 5678 5679 5680 5681 5681 5681 5681 5681 5680 5679 5678 5677 5675 5674 5672 5670 5667 5665 5662 5659 5656
5602 5608 5613 5618 5623 5626 5631 5635 5640 5644 5647 5650 5653 5656 5659 5661 5663 5664 5665 5666 5667 5668 5668 5667 5667 5666 5666 5665 5663 5662 5660 5658 5656 5653 5651 5648 5645 5642
5588 5594 5600 5604 5609 5613 5617 5622 5627 5630 5633 5636 5639 5642 5644 5647 5649 5650 5651 5652 5653 5654 5655 5654 5653 5652 5652 5651 5650 5648 5646 5644 5641 5639 5636 5633 5630 5627
5573 5580 5585 5590 5595 5599 5603 5608 5612 5615 5619 5622 5625 5628 5630 5633 5635 5636 5637 5638 5639 5640 5639 5639 5639 5639 5638 5637 5635 5633 5631 5629 5627 5624 5622 5619 5616 5613
5559 5565 5570 5575 5580 5584 5589 5593 5597 5600 5603 5607 5611 5614 5616 5618 5620 5621 5622 5623 5624 5624 5624 5624 5624 5623 5623 5622 5621 5619 5617 5614 5612 5610 5607 5604 5601 5598
5543 5549 5555 5560 5565 5570 5574 5578 5582 5586 5589 5593 5596 5599 5601 5603 5604 5606 5607 5608 5609 5609 5609 5609 5608 5608 5608 5607 5606 5604 5602 5600 5598 5595 5592 5589 5586 5583
5528 5534 5539 5545 5550 5555 5559 5564 5567 5571 5574 5578 5581 5584 5586 5588 5590 5591 5592 5592 5593 5594 5594 5594 5593 5593 5592 5592 5590 5589 5587 5585 5583 5580 5577 5574 5571 5567
5513 5518 5524 5530 5535 5540 5545 5549 5553 5556 5559 5563 5566 5568 5571 5573 5575 5576 5576 5577 5578 5579 5579 5578 5578 5577 5577 5576 5576 5574 5572 5570 5568 5565 5562 5560 5557 5553
5498 5504 5510 5515 5520 5525 5530 5534 5538 5542 5545 5548 5551 5553 5555 5557 5559 5560 5561 5562 5562 5563 5563 5563 5562 5562 5561 5561 5561 5559 5558 5555 5553 5550 5547 5545 5542 5538
5484 5490 5495 5501 5505 5510 5515 5519 5523 5527 5530 5533 5536 5538 5540 5542 5544 5545 5546 5547 5547 5548 5548 5548 5547 5547 5546 5546 5546 5544 5541 5539 5537 5535 5533 5530 5527 5523
5472 5477 5481 5487 5491 5496 5500 5504 5508 5512 5515 5518 5521 5523 5525 5527 5528 5530 5531 5531 5532 5532 5533 5533 5532 5531 5530 5530 5529 5528 5526 5523 5521 5519 5517 5514 5512 5509
5459 5463 5468 5473 5478 5482 5486 5490 5494 5498 5501 5504 5507 5509 5510 5512 5513 5514 5515 5516 5517 5517 5517 5517 5516 5516 5515 5514 5513 5512 5510 5508 5505 5503 5500 5498 5495 5494
5447 5451 5455 5460 5464 5469 5473 5477 5481 5484 5487 5490 5492 5494 5496 5497 5499 5500 5501 5501 5502 5502 5502 5501 5501 5500 5500 5499 5498 5497 5495 5493 5490 5488 5486 5482 5480 5478